User: anonymous   Login
Location: Unspecified
(0.0000°N, 0.0000°E)
Time: 02:16:26
(UTC+02:00)
Language:

H-2A R/B - Orbit

View from above orbital plane
View from above orbital plane
View from above satellite
View from above satellite

Ground track
Ground track

The orbit data is extracted from the following two-line orbital elements,

1 28932U 06002B   15116.44820034  .00002592  00000-0  25613-3 0  9999
2 28932 098.2609 356.0762 0092826 353.7098 056.4100 14.89736765501199
Epoch (UTC): 26 April 2015 10:45:24
Eccentricity: 0.0092826
inclination: 98.2609°
perigee height: 534 km
apogee height: 663 km
right ascension of ascending node: 356.0762°
argument of perigee: 353.7098°
revolutions per day: 14.89736765
mean anomaly at epoch: 56.4100°
orbit number at epoch: 50119

The dashed part of the orbit path shows where the satellite is in the earth's shadow,  

DLR